This is the latest recevied weather packets stored in our database for station/object KM4KBD. If no packets are shown the sender has not sent any weather packets the latest 10 day(s).
| Time | Temp. | Humidity | Pressure | Rain* | Wind** | Luminosity | Snow |
|---|---|---|---|---|---|---|---|
| 1777962567 | 17.78° C | 61% | 1015.9 hPa | 0 mm | - | 0 W/m² | - |
| 1777962265 | 17.78° C | 61% | 1016 hPa | 0 mm | - | 0 W/m² | - |
| 1777961961 | 17.78° C | 61% | 1016.1 hPa | 0 mm | - | 0 W/m² | - |
| 1777961660 | 17.78° C | 61% | 1015.8 hPa | 0 mm | - | 0 W/m² | - |
| 1777961357 | 17.78° C | 60% | 1015.9 hPa | 0 mm | - | 0 W/m² | - |
| 1777961054 | 18.33° C | 60% | 1016.1 hPa | 0 mm | - | 0 W/m² | - |
| 1777960750 | 18.33° C | 60% | 1016.2 hPa | 0 mm | - | 0 W/m² | - |
| 1777960446 | 18.33° C | 60% | 1016.3 hPa | 0 mm | - | 0 W/m² | - |
| 1777960143 | 18.33° C | 60% | 1015.9 hPa | 0 mm | - | 0 W/m² | - |
| 1777959840 | 18.33° C | 60% | 1016.3 hPa | 0 mm | - | 0 W/m² | - |
| 1777959538 | 17.78° C | 60% | 1016.3 hPa | 0 mm | - | 0 W/m² | - |
| 1777959235 | 18.33° C | 61% | 1016.3 hPa | 0 mm | - | 0 W/m² | - |
| 1777958932 | 18.33° C | 60% | 1016.1 hPa | 0 mm | - | 0 W/m² | - |
| 1777958629 | 18.33° C | 60% | 1016.3 hPa | 0 mm | - | 0 W/m² | - |
| 1777958326 | 18.33° C | 60% | 1016.4 hPa | 0 mm | - | 0 W/m² | - |
| 1777958023 | 18.33° C | 60% | 1016.3 hPa | 0 mm | - | 0 W/m² | - |
| 1777957721 | 18.89° C | 59% | 1016.3 hPa | 0 mm | - | 0 W/m² | - |
| 1777957420 | 18.89° C | 59% | 1016.1 hPa | 0 mm | - | 0 W/m² | - |
| 1777957115 | 18.89° C | 59% | 1016.3 hPa | 0 mm | - | 0 W/m² | - |
| 1777956812 | 18.89° C | 59% | 1016.5 hPa | 0 mm | - | 0 W/m² | - |
| 1777956509 | 18.89° C | 58% | 1016.2 hPa | 0 mm | - | 0 W/m² | - |
| 1777956206 | 19.44° C | 57% | 1015.9 hPa | 0 mm | - | 0 W/m² | - |
| 1777955902 | 19.44° C | 57% | 1016.2 hPa | 0 mm | - | 0 W/m² | - |
| 1777955599 | 20° C | 56% | 1016.2 hPa | 0 mm | - | 0 W/m² | - |
| 1777955295 | 20° C | 55% | 1015.9 hPa | 0 mm | - | 0 W/m² | - |
* Rain latest hour (hover to see other rain measurements)
** Current wind speed in m/s (hover to see current wind gust speed)